Lancaster, PA

8:38 AM EDT on September 21, 2017 (GMT -0400)
Lancaster

Weather History for KLNS - November, 2013

Change the Weather History Date:

Thursday, November 7, 2013

  Actual Average Record
Temperature  
Mean Temperature 50 °F -  
Max Temperature 57 °F 54 °F 69 °F (1980)
Min Temperature 42 °F 36 °F 24 °F (1982)
Degree Days  
Heating Degree Days 16    
Moisture  
Dew Point 46 °F    
Average Humidity 79    
Maximum Humidity 100    
Minimum Humidity 49    
Precipitation  
Precipitation 0.09 in - - ()
Sea Level Pressure  
Sea Level Pressure 29.92 in    
Wind  
Wind Speed 9 mph (West)    
Max Wind Speed 17 mph    
Max Gust Speed 29 mph    
Visibility 9 miles    
Events Rain    
Averages and records for this station are not official NWS values.
T = Trace of Precipitation, MM = Missing Value Source: NWS Daily Summary

Daily Weather History Graph

Daily Weather History Graph

Search for Another Location

Airport or City:

Trip Planner

Search our weather history database for the weather conditions in past years. The results will help you decide how hot, cold, wet, or windy it might be!

Date:

Astronomy

Nov. 07, 2013 Rise Set
Actual Time 6:41 AM EST 4:55 PM EST
Civil Twilight 6:13 AM EST 5:24 PM EST
Nautical Twilight 5:40 AM EST 5:56 PM EST
Astronomical Twilight 5:08 AM EST 6:28 PM EST
Moon 10:48 AM EST (11/7) 9:04 PM EST (11/7)
Length of Visible Light 11h 11m
Length of Day
10h 14m
Waxing Crescent, 22% of the Moon is Illuminated
Nov 7
Waxing Crescent
Nov 10
First Quarter
Nov 17
Full
Nov 25
Last Quarter
Dec 2
New

Hourly Weather History & Observations

Time (EST) Temp. Windchill Dew Point Humidity Pressure Visibility Wind Dir Wind Speed Gust Speed Precip Events Conditions
12:53 AM 55.9 °F - 48.0 °F 75% 30.02 in 10.0 mi South 4.6 mph - N/A   Mostly Cloudy
1:53 AM 55.9 °F - 48.9 °F 77% 29.99 in 10.0 mi SSW 8.1 mph - N/A   Overcast
2:53 AM 55.9 °F - 50.0 °F 80% 29.96 in 10.0 mi South 9.2 mph - N/A   Overcast
3:53 AM 57.0 °F - 51.1 °F 81% 29.93 in 10.0 mi SSW 9.2 mph - N/A   Overcast
4:53 AM 57.0 °F - 51.1 °F 81% 29.90 in 10.0 mi South 6.9 mph - N/A   Overcast
5:53 AM 57.0 °F - 51.1 °F 81% 29.88 in 10.0 mi Calm Calm - N/A   Overcast
6:53 AM 55.9 °F - 52.0 °F 87% 29.88 in 10.0 mi WSW 3.5 mph - N/A   Mostly Cloudy
7:53 AM 55.9 °F - 54.0 °F 93% 29.89 in 10.0 mi West 5.8 mph - 0.00 in   Overcast
8:04 AM 55.4 °F - 53.6 °F 94% 29.89 in 2.0 mi West 8.1 mph - 0.00 in Rain Light Rain
8:09 AM 55.4 °F - 55.4 °F 100% 29.89 in 3.0 mi WSW 6.9 mph - 0.00 in Rain Light Rain
8:53 AM 57.0 °F - 55.0 °F 93% 29.87 in 10.0 mi WSW 5.8 mph - 0.01 in   Overcast
9:53 AM 57.0 °F - 55.0 °F 93% 29.88 in 8.0 mi WNW 5.8 mph - 0.00 in   Overcast
10:21 AM 57.2 °F - 55.4 °F 94% 29.87 in 10.0 mi West 9.2 mph - N/A   Overcast
10:40 AM 57.2 °F - 53.6 °F 88% 29.87 in 9.0 mi West 10.4 mph - N/A   Overcast
10:53 AM 57.0 °F - 54.0 °F 89% 29.86 in 7.0 mi West 9.2 mph - 0.01 in Rain Light Rain
11:03 AM 57.2 °F - 53.6 °F 88% 29.87 in 7.0 mi West 10.4 mph - 0.00 in Rain Light Rain
11:53 AM 55.0 °F - 53.1 °F 93% 29.87 in 7.0 mi West 12.7 mph - 0.01 in Rain Light Rain
12:13 PM 55.4 °F - 51.8 °F 88% 29.87 in 5.0 mi West 11.5 mph 18.4 mph N/A Rain Rain
12:29 PM 53.6 °F - 51.8 °F 94% 29.87 in 6.0 mi WNW 15.0 mph 23.0 mph N/A Rain Light Rain
12:36 PM 53.6 °F - 51.8 °F 94% 29.87 in 8.0 mi WNW 15.0 mph 23.0 mph N/A Rain Light Rain
12:53 PM 54.0 °F - 51.1 °F 90% 29.87 in 8.0 mi WNW 12.7 mph - N/A Rain Light Rain
1:53 PM 53.1 °F - 48.9 °F 86% 29.88 in 10.0 mi WNW 16.1 mph - 0.01 in   Overcast
2:53 PM 52.0 °F - 43.0 °F 71% 29.89 in 10.0 mi WNW 17.3 mph 24.2 mph 0.01 in   Partly Cloudy
3:53 PM 52.0 °F - 37.9 °F 59% 29.91 in 10.0 mi WNW 13.8 mph - 0.01 in   Clear
4:53 PM 48.9 °F - 37.0 °F 64% 29.92 in 10.0 mi NW 12.7 mph - 0.01 in   Partly Cloudy
5:53 PM 48.0 °F - 35.1 °F 61% 29.95 in 10.0 mi NW 15.0 mph 23.0 mph 0.01 in   Partly Cloudy
6:53 PM 46.0 °F 41.0 °F 30.0 °F 54% 29.98 in 10.0 mi NW 10.4 mph - N/A   Clear
7:53 PM 46.0 °F 43.9 °F 30.9 °F 56% 29.99 in 10.0 mi NW 4.6 mph - N/A   Overcast
8:53 PM 46.9 °F - 33.1 °F 59% 30.01 in 10.0 mi WNW 17.3 mph 24.2 mph 0.01 in   Overcast
9:53 PM 44.1 °F 36.8 °F 30.0 °F 58% 30.01 in 10.0 mi WNW 16.1 mph - N/A   Overcast
10:53 PM 42.1 °F 33.9 °F 24.1 °F 49% 30.02 in 10.0 mi NW 17.3 mph 28.8 mph N/A   Overcast
11:53 PM 42.1 °F 35.2 °F 24.1 °F 49% 30.03 in 10.0 mi WNW 12.7 mph - N/A   Overcast